Temperature
24 24 23 23 25 26 28 29 30 29 29 29 28 28 27 26 25 23 22 21 21 20 20 20 19 19 19 19 19 18 18 18 18 18 18 18 18 18 18 18 18 18 18 18 18 18 18 18 18
24 23 23 25 26 28 28 29 29 29 29 29 28 28 27 25 24 23 22 21 21 20 20 20 19 19 19 19 19 18 18 18 18 18 18 18 18 18 18 18 18 18 18 18 18 18 18 18 18
24 24 25 27 28 29 29 30 30 30 29 29 28 27 26 25 24 22 22 21 21 20 20 20 19 19 19 19 18 18 18 18 18 18 18 18 18 18 18 18 18 18 18 18 18 18 18 18 18
24 26 27 29 29 30 30 30 31 30 29 29 28 27 25 24 23 22 22 22 21 20 20 20 19 19 19 19 18 18 18 18 18 18 18 18 18 18 18 18 18 18 18 18 18 18 18 18 18
25 27 29 30 30 31 31 31 31 30 30 29 28 26 24 24 23 23 22 22 21 20 20 20 19 19 19 19 18 18 18 18 18 18 18 18 18 18 18 18 18 18 18 18 18 18 18 18 18
27 29 29 30 30 31 32 31 31 30 30 29 27 26 24 24 23 23 22 22 21 20 20 20 19 19 19 19 18 18 18 18 18 18 18 18 18 18 18 18 18 18 18 18 18 18 18 18 18
28 29 30 31 31 31 31 31 31 30 30 29 28 26 25 24 23 23 22 22 21 20 20 20 19 19 19 18 18 18 18 18 18 18 18 18 18 18 18 18 18 18 18 18 18 18 18 18 18
30 31 31 31 31 31 32 31 30 30 30 29 28 27 25 24 24 23 22 22 21 20 20 19 19 19 19 18 18 18 18 18 18 18 18 18 18 18 18 18 18 18 18 18 18 18 18 18 18
32 31 31 32 31 31 32 31 31 30 29 29 28 27 25 24 24 23 22 22 21 20 20 20 19 19 18 18 18 18 18 18 18 18 18 18 18 18 18 18 18 18 18 18 18 18 18 18 18
32 31 32 33 33 32 32 32 31 30 30 29 27 26 25 25 24 23 23 22 21 20 20 20 19 19 18 18 18 18 18 18 18 18 18 18 18 17 18 18 18 18 18 18 18 18 18 18 18
33 32 33 34 33 33 32 32 31 31 30 29 27 26 25 25 24 23 23 22 21 20 20 19 19 19 18 18 18 18 18 18 18 18 18 18 18 18 18 18 18 18 18 18 18 18 18 18 18
34 34 34 33 33 33 33 32 32 31 30 28 27 26 26 25 24 24 23 22 21 21 20 20 19 19 19 18 18 18 18 18 18 18 18 18 18 18 18 18 18 18 18 18 17 18 18 18 18
34 34 33 33 33 33 32 32 31 30 29 28 27 26 26 25 25 24 23 22 21 21 20 20 19 19 19 18 18 18 18 18 18 18 18 18 18 18 18 18 18 18 18 18 18 18 18 18 18
35 34 33 33 33 33 32 31 31 30 29 28 27 26 26 25 24 24 23 22 21 20 20 19 19 19 18 18 18 18 18 18 18 18 18 18 18 18 18 18 18 18 18 18 18 18 18 18 18
34 33 33 33 33 33 32 31 31 30 29 28 27 27 26 25 24 23 22 22 21 20 20 19 19 19 18 18 18 18 18 18 18 18 18 18 18 18 18 18 18 18 18 18 18 18 18 18 18
34 32 31 32 34 33 32 29 31 30 29 29 28 27 26 25 24 23 22 22 21 20 20 19 19 19 18 18 18 18 18 18 18 18 18 18 18 18 18 18 18 18 18 18 18 18 18 18 18
32 31 31 32 34 34 33 31 31 31 30 29 28 27 26 25 24 23 22 21 21 20 20 19 19 19 19 18 18 18 18 18 18 18 18 18 18 18 18 18 18 18 18 18 18 18 18 18 18
31 31 32 32 33 34 33 31 31 31 31 30 29 28 26 25 24 24 23 22 20 20 19 19 19 19 19 18 18 18 18 18 18 18 18 18 18 18 18 18 18 18 18 18 18 18 18 18 18
32 32 33 33 34 33 33 31 31 32 32 31 29 28 27 26 25 24 23 22 21 20 19 19 19 19 19 18 18 18 18 18 18 18 18 18 18 18 18 18 18 18 18 18 18 18 18 18 18
33 33 33 34 34 33 32 32 32 33 32 31 30 29 28 26 25 24 23 22 21 20 19 19 19 19 19 19 19 19 18 18 18 18 18 18 18 18 18 18 18 18 18 18 18 18 18 18 18
34 33 33 33 34 33 32 31 31 32 32 31 30 29 28 27 25 24 23 22 21 20 20 19 19 19 19 19 19 19 19 18 18 18 18 18 18 18 18 18 18 18 18 18 18 18 18 18 18
33 34 34 33 32 31 32 30 30 31 31 32 31 30 29 28 26 25 23 23 22 21 20 20 19 19 19 19 19 19 19 18 19 18 18 18 18 18 18 18 18 18 18 18 18 18 18 18 18
34 34 34 33 33 31 32 30 30 31 31 31 31 30 29 28 27 25 24 23 22 21 20 20 20 19 19 19 19 19 19 19 19 19 18 18 18 18 18 18 18 18 18 18 18 18 18 18 18
34 34 33 33 32 30 30 30 30 31 31 31 31 30 29 28 27 26 25 23 23 22 21 20 20 20 19 19 19 19 19 19 19 19 19 18 18 18 18 18 18 18 18 18 18 18 18 18 18
34 32 31 30 29 29 31 30 30 32 32 32 31 30 29 28 27 26 25 24 23 22 21 21 20 20 20 19 19 19 19 19 19 19 18 18 18 18 18 18 18 18 18 18 18 18 18 18 18
33 32 30 29 28 30 31 30 31 32 32 32 31 30 30 29 28 27 25 24 23 23 22 21 20 20 20 20 19 19 19 19 19 19 18 18 18 19 19 18 18 18 18 18 18 18 18 18 18
32 32 33 31 30 29 29 29 30 32 32 32 31 30 30 29 28 27 26 25 24 23 22 21 21 20 20 20 19 19 19 19 19 19 19 19 18 18 18 18 18 18 18 18 18 18 18 18 18
33 33 32 31 29 28 28 28 29 30 31 31 31 30 29 29 28 27 26 25 24 23 22 22 21 20 20 20 20 19 19 19 19 19 19 19 19 18 18 18 18 18 18 18 18 18 18 18 18
32 32 31 31 30 29 28 29 31 31 31 31 31 30 29 29 28 27 26 25 24 23 22 22 21 20 20 20 19 19 19 19 19 19 19 19 18 18 18 18 18 18 18 18 18 18 18 17 17
33 33 32 30 29 29 29 28 31 31 31 30 30 29 29 29 28 27 26 25 24 24 23 22 21 20 20 19 19 19 19 19 18 18 18 18 18 18 18 18 18 18 18 18 18 17 17 17 17
Wind_Speed
9 11 10 6 4 1 10 12 12 11 11 11 11 11 16 14 10 8 7 11 12 13 14 14 14 14 13 13 12 12 12 12 12 12 12 12 12 12 11 12 13 14 15 17 17 17 16 16 16
9 12 8 5 3 5 11 12 12 12 10 9 12 14 15 15 12 9 9 10 11 13 13 14 14 14 13 13 12 12 12 12 11 11 12 12 11 11 11 13 13 14 16 17 17 17 16 16 15
10 12 6 3 4 9 11 11 11 11 9 10 12 14 12 10 12 9 9 11 12 12 14 15 14 13 13 12 12 12 11 11 11 10 11 11 11 12 12 13 13 14 16 17 17 17 16 15 14
6 6 5 0 10 11 10 9 9 10 9 10 11 11 12 11 10 11 11 11 12 13 14 15 14 13 13 12 11 11 11 10 10 10 10 10 12 13 13 13 13 14 15 16 17 16 16 14 13
8 6 2 6 11 10 10 9 10 10 9 11 14 15 14 12 12 12 11 11 11 13 14 14 14 13 12 11 11 11 10 9 9 10 10 11 12 13 13 13 14 14 15 16 16 16 15 13 12
5 4 1 7 10 10 10 9 10 11 11 12 14 15 12 11 11 11 10 11 11 13 14 13 13 12 11 11 11 10 9 9 10 11 11 11 12 13 13 13 13 14 14 15 15 14 13 11 10
7 4 3 8 11 10 10 10 9 10 10 10 13 14 11 10 10 11 11 11 11 13 12 11 11 11 11 11 11 10 10 9 10 12 12 12 12 13 12 13 12 13 13 13 13 13 12 11 9
4 3 5 8 10 10 10 10 9 9 10 9 9 9 11 11 11 11 12 11 11 11 10 9 10 9 8 9 10 10 9 9 10 11 11 11 12 12 12 12 12 12 11 11 12 12 11 10 9
3 1 6 9 9 9 9 10 10 10 10 9 11 13 15 13 12 11 11 10 9 9 8 8 9 8 7 8 9 8 8 8 9 9 10 9 9 10 10 12 12 11 10 10 11 12 11 10 8
0 3 8 9 9 10 8 9 9 9 10 11 14 15 15 13 11 11 10 9 9 8 8 7 7 6 6 7 7 6 7 6 6 7 8 7 8 9 11 12 13 11 11 10 11 11 10 8 7
3 5 7 8 8 9 9 8 8 9 9 11 13 14 13 12 11 10 9 9 9 7 7 8 7 5 6 5 5 4 4 5 5 6 7 7 7 8 9 8 9 9 9 7 8 7 6 6 5
3 5 5 7 6 8 8 9 10 11 11 13 14 13 12 11 10 10 10 10 8 7 7 8 8 6 5 5 4 3 3 3 4 6 7 7 4 5 6 6 6 6 5 5 5 3 4 4 4
1 4 5 6 5 6 8 10 10 12 13 13 13 13 11 10 9 9 10 9 8 7 7 8 9 7 6 4 2 3 2 3 5 5 6 7 5 5 6 5 5 5 5 4 3 3 3 3 3
1 4 4 5 6 5 8 8 9 11 13 14 13 11 10 10 9 9 9 8 8 8 8 8 9 8 6 4 2 1 3 4 5 6 6 7 5 5 5 5 4 4 5 5 3 3 3 2 3
1 1 1 4 6 6 6 7 9 11 12 13 12 11 10 9 10 9 9 8 8 7 8 7 9 8 6 5 3 3 2 5 5 6 7 5 5 6 5 4 4 4 4 5 4 3 3 3 3
6 3 4 5 7 8 6 7 9 12 12 12 12 11 11 10 9 9 9 8 8 8 7 5 7 8 5 4 2 2 3 4 4 6 7 5 5 6 4 3 4 5 4 4 3 3 2 3 3
8 7 6 5 5 7 6 8 11 12 12 12 12 12 11 10 9 10 10 9 8 8 7 4 6 7 5 5 3 3 3 3 3 5 6 6 5 6 3 3 4 4 3 3 3 4 2 2 2
5 6 5 5 6 5 5 8 11 12 12 13 12 12 11 11 10 10 10 11 10 8 7 6 5 6 5 4 3 2 3 3 3 4 5 6 5 5 3 4 5 4 3 3 3 4 2 2 2
8 10 6 4 5 4 4 7 10 12 11 12 13 12 12 12 12 11 11 11 11 9 8 7 6 5 4 3 3 3 3 2 3 4 6 6 5 5 3 2 4 3 3 3 4 3 3 2 2
12 11 7 4 4 4 3 4 8 11 11 11 13 13 13 13 13 12 11 11 11 10 9 8 6 6 5 4 3 3 3 3 3 3 5 6 5 5 5 3 3 4 3 3 3 3 2 2 2
12 10 8 4 2 3 4 5 5 8 10 11 12 13 14 14 14 13 12 11 12 12 11 9 8 7 6 5 4 3 3 2 3 4 4 3 5 5 3 4 2 2 3 4 4 3 4 3 2
11 10 9 7 7 6 6 4 6 9 9 11 11 10 12 14 15 14 13 11 12 12 12 10 9 7 6 5 5 5 4 3 3 4 4 4 4 4 4 4 3 2 2 3 4 4 2 2 2
10 10 10 10 8 8 7 5 5 9 10 10 10 10 11 13 15 15 14 13 12 13 13 11 9 7 6 5 5 4 4 4 3 4 4 4 4 4 4 4 3 3 2 2 2 2 2 2 2
10 11 11 11 9 8 8 6 4 8 9 10 11 11 10 11 13 14 14 13 12 13 12 12 10 8 7 6 5 5 4 4 4 4 4 4 3 3 4 4 3 3 3 2 2 2 3 2 2
11 11 8 9 8 9 8 5 3 6 8 9 11 12 12 12 13 13 13 14 12 13 13 12 11 9 8 7 6 5 4 4 4 4 5 4 4 4 4 4 3 3 3 3 3 3 3 3 2
13 13 10 9 10 8 6 4 2 4 6 7 9 11 11 11 12 13 13 13 12 13 12 12 11 10 9 8 6 5 5 4 4 4 3 4 3 3 5 4 4 3 3 3 2 2 3 2 3
13 13 13 10 11 9 6 4 5 5 7 8 8 9 11 11 11 12 13 13 12 12 12 12 12 10 9 9 7 6 6 4 4 4 4 2 3 3 5 5 4 4 3 2 2 2 2 2 3
16 13 9 9 7 9 8 7 5 7 6 6 8 7 8 8 9 9 11 12 12 11 10 11 11 10 9 9 8 8 6 5 3 3 4 3 2 2 3 4 4 3 3 3 3 3 3 3 3
14 14 11 8 9 9 9 5 3 6 5 6 8 8 7 8 7 8 8 10 12 11 11 10 11 11 9 9 7 6 7 6 5 3 3 3 3 2 2 3 4 4 3 3 3 4 4 4 4
14 14 13 10 8 8 8 5 4 5 8 7 6 7 8 7 7 9 10 9 9 11 11 10 10 10 10 9 8 6 6 6 6 5 4 3 3 2 2 2 3 3 3 3 4 4 4 4 4
Wind_Direction
196 211 217 237 251 227 68 65 65 60 60 59 59 64 60 55 61 85 91 84 89 97 102 95 92 94 92 91 92 92 93 94 97 99 101 103 103 105 109 116 120 125 130 133 133 133 132 132 131
222 223 227 250 260 72 71 67 67 67 70 71 67 69 70 67 76 94 91 94 97 100 103 99 98 97 96 94 95 94 94 95 96 98 101 105 105 105 109 116 118 125 129 132 134 133 134 136 137
248 254 257 237 57 69 74 74 81 81 74 76 75 66 62 76 85 99 105 105 101 100 103 107 104 100 100 99 98 96 95 94 96 99 99 100 103 106 110 119 121 125 129 132 135 134 138 140 141
244 242 238 67 66 70 76 83 87 86 77 76 83 80 74 78 92 102 108 109 107 110 106 111 110 106 104 105 103 102 99 97 97 101 98 99 104 108 110 118 124 127 130 132 135 136 139 142 143
241 261 232 80 78 80 80 84 91 86 81 80 87 93 89 88 100 108 109 110 107 108 106 110 114 112 111 113 110 108 106 104 106 108 104 103 109 112 112 113 121 126 129 132 135 138 141 143 144
258 257 39 82 86 81 80 78 87 87 86 89 96 98 96 104 105 108 104 102 104 103 106 110 118 116 116 119 118 114 110 107 112 113 108 108 112 113 114 118 122 125 130 134 137 140 142 144 147
263 300 62 91 92 86 80 74 74 85 86 89 102 104 108 113 114 111 107 101 97 99 106 114 113 117 118 118 122 117 113 112 114 116 115 114 117 116 117 121 123 125 129 135 139 143 146 149 152
263 330 44 80 93 95 97 89 83 90 85 95 101 106 121 125 122 115 109 104 99 101 107 115 117 119 120 121 126 123 118 116 119 119 120 119 121 123 125 127 128 125 129 137 142 147 150 152 158
281 356 59 72 89 97 98 100 100 97 98 90 86 104 123 129 125 119 111 105 99 101 108 113 113 116 120 123 120 125 126 123 128 130 131 132 130 130 133 129 132 128 128 136 146 150 150 154 165
188 62 69 73 94 106 106 100 105 105 102 98 97 110 124 129 123 119 116 113 108 105 111 105 100 109 115 116 124 130 130 132 136 131 135 136 128 126 125 132 138 136 133 136 147 151 153 163 170
84 81 79 86 92 107 109 102 98 107 106 110 115 122 127 127 126 124 121 114 111 115 110 109 104 100 96 100 122 119 124 134 139 134 136 132 128 129 128 133 136 144 146 150 145 156 169 168 165
95 92 85 88 92 96 100 100 92 89 97 111 123 129 129 131 131 129 124 118 120 120 115 113 114 102 89 96 97 118 126 129 138 147 150 140 135 126 128 132 142 149 153 146 140 154 152 152 148
156 108 107 106 104 99 97 88 93 100 107 114 122 126 131 134 129 123 118 119 119 116 110 107 111 103 90 82 85 106 111 128 140 136 140 132 128 120 121 124 138 141 139 135 134 130 121 113 114
54 84 99 121 133 120 105 114 107 114 119 123 128 133 135 128 123 117 115 117 118 115 112 109 111 109 107 108 92 82 120 121 130 130 132 132 132 122 122 128 131 130 135 141 135 128 117 111 95
215 141 190 174 167 130 122 124 120 133 130 133 136 137 134 130 127 126 125 125 122 117 115 118 122 119 124 128 140 129 118 127 113 114 119 123 125 127 130 130 133 133 135 131 131 124 121 127 125
264 222 224 215 168 153 165 147 154 146 142 144 144 142 141 136 137 136 132 130 127 123 120 131 131 127 129 121 117 116 111 107 114 130 130 133 129 136 137 133 136 131 138 135 137 149 141 123 125
256 241 221 221 188 175 167 153 155 155 155 153 152 150 148 146 148 141 141 140 134 128 130 130 118 129 136 134 138 127 110 104 120 130 135 142 144 147 155 124 118 143 149 148 156 133 130 119 131
254 259 223 202 206 200 164 148 159 165 164 158 157 155 155 157 157 149 148 145 142 141 140 137 131 130 140 141 138 131 122 132 136 132 139 141 155 151 156 137 145 166 144 136 123 122 134 128 174
252 265 261 212 195 206 176 163 176 171 170 161 161 164 164 162 158 152 152 148 146 147 149 149 147 139 149 148 151 145 145 156 142 142 141 144 156 147 163 136 141 163 139 148 149 145 150 167 171
255 265 266 238 183 190 184 191 185 173 174 170 167 168 167 162 157 154 157 155 153 152 154 154 151 153 165 157 160 163 158 166 152 135 139 154 157 158 165 154 163 162 150 163 166 157 151 189 188
263 271 276 286 249 211 214 214 190 174 178 172 171 170 169 166 162 161 163 162 159 157 160 167 163 162 171 154 160 158 141 168 140 141 147 160 161 164 177 154 169 153 170 169 174 183 184 194 225
262 268 275 273 267 249 233 233 183 183 188 175 169 169 171 168 164 164 167 168 166 162 164 162 159 163 167 163 173 169 159 165 169 161 153 163 166 168 170 169 166 170 187 160 186 179 200 194 225
261 278 281 279 268 264 252 238 197 183 189 179 167 168 177 169 164 167 171 170 170 167 165 163 159 165 167 174 174 174 169 170 172 160 150 160 173 181 178 170 169 178 191 186 185 140 190 220 240
257 267 270 272 268 257 257 251 219 182 183 174 166 167 172 169 164 165 167 167 171 169 166 164 162 167 170 178 179 179 181 177 165 160 159 174 176 179 190 182 176 181 191 197 189 188 203 218 252
242 252 257 259 252 245 232 246 231 160 170 165 161 163 170 168 164 164 165 166 169 169 168 166 162 168 173 180 184 180 185 182 172 174 178 187 185 179 188 188 176 192 194 193 193 196 224 216 221
241 244 246 257 263 261 236 217 218 140 143 145 154 162 165 165 165 166 165 165 167 169 168 163 162 170 176 181 186 176 180 188 188 195 197 183 197 184 168 176 179 196 197 207 196 218 220 218 229
244 245 256 258 266 275 276 222 188 173 153 153 152 160 157 163 167 169 166 165 166 168 165 163 161 168 176 179 180 176 182 191 196 184 196 194 191 190 158 171 179 193 198 208 202 227 236 226 225
244 252 261 261 269 272 267 256 222 174 166 159 153 145 146 157 161 161 162 164 167 166 161 162 162 168 174 177 181 181 184 191 200 192 181 191 203 210 167 177 188 196 198 200 208 230 228 221 227
234 237 246 257 260 263 267 258 174 148 157 167 160 145 152 152 149 149 158 162 161 164 165 164 163 167 173 178 179 179 177 187 192 199 192 187 198 210 200 196 194 199 200 202 206 228 226 226 232
243 243 246 250 257 262 265 269 249 173 165 160 148 135 140 139 145 155 159 153 159 163 169 167 168 173 176 178 173 181 173 178 186 192 191 187 186 196 204 208 205 210 207 207 216 234 236 233 236
Height
1480 1480 1481 1484 1482 1480 1477 1471 1469 1471 1472 1474 1475 1477 1481 1484 1490 1502 1503 1501 1501 1500 1499 1499 1499 1499 1499 1499 1499 1500 1500 1501 1502 1503 1503 1504 1504 1505 1505 1507 1508 1510 1511 1514 1518 1521 1524 1528 1532
1480 1482 1485 1483 1481 1484 1480 1472 1473 1474 1475 1476 1478 1480 1484 1489 1494 1499 1501 1502 1502 1502 1501 1501 1501 1501 1501 1501 1501 1502 1502 1503 1503 1504 1505 1505 1505 1505 1506 1507 1509 1511 1513 1516 1519 1522 1525 1529 1533
1481 1483 1484 1477 1476 1480 1480 1472 1473 1474 1476 1477 1481 1485 1489 1494 1497 1500 1502 1503 1503 1503 1503 1502 1502 1503 1503 1503 1503 1503 1504 1504 1504 1505 1506 1506 1506 1506 1506 1508 1510 1512 1515 1518 1521 1524 1527 1530 1533
1481 1482 1479 1475 1477 1471 1471 1471 1472 1474 1477 1479 1482 1488 1495 1498 1500 1502 1503 1504 1504 1504 1504 1504 1504 1504 1504 1504 1505 1505 1505 1505 1505 1505 1506 1507 1507 1507 1508 1510 1512 1514 1516 1519 1522 1525 1528 1531 1534
1482 1480 1475 1475 1475 1470 1468 1470 1473 1475 1478 1481 1485 1492 1498 1501 1502 1503 1504 1505 1506 1506 1506 1506 1506 1506 1506 1506 1506 1506 1506 1505 1505 1505 1507 1508 1509 1509 1511 1512 1513 1516 1518 1521 1524 1527 1530 1532 1535
1481 1473 1477 1479 1474 1469 1469 1471 1473 1476 1480 1483 1487 1493 1500 1503 1504 1505 1506 1507 1508 1508 1507 1507 1507 1507 1507 1507 1507 1507 1507 1506 1505 1506 1508 1510 1511 1512 1513 1514 1516 1518 1520 1523 1526 1528 1531 1534 1536
1478 1472 1473 1473 1474 1474 1472 1474 1475 1478 1481 1484 1488 1494 1500 1504 1505 1506 1508 1509 1509 1509 1509 1509 1509 1509 1509 1509 1509 1509 1508 1508 1507 1508 1510 1512 1513 1514 1516 1517 1518 1521 1522 1524 1527 1530 1532 1535 1537
1473 1469 1471 1470 1473 1476 1473 1475 1478 1480 1483 1486 1488 1493 1500 1504 1506 1507 1509 1510 1511 1511 1511 1512 1511 1511 1511 1510 1510 1510 1510 1510 1510 1511 1513 1514 1515 1517 1518 1520 1521 1523 1524 1525 1528 1531 1533 1536 1539
1469 1472 1474 1471 1472 1473 1472 1475 1479 1481 1484 1487 1489 1493 1499 1503 1506 1508 1510 1511 1512 1513 1513 1513 1513 1513 1512 1512 1512 1512 1512 1513 1513 1514 1515 1516 1518 1519 1521 1522 1524 1525 1526 1526 1528 1532 1535 1537 1540
1467 1472 1470 1465 1466 1470 1472 1474 1477 1481 1485 1488 1492 1497 1500 1503 1506 1508 1510 1512 1513 1514 1514 1515 1515 1514 1514 1514 1513 1513 1514 1514 1515 1516 1517 1519 1520 1522 1523 1524 1526 1527 1528 1528 1530 1533 1536 1539 1541
1465 1468 1464 1465 1467 1469 1472 1474 1476 1480 1485 1489 1494 1498 1501 1504 1506 1509 1511 1512 1514 1515 1516 1515 1515 1516 1515 1515 1515 1515 1515 1516 1517 1517 1518 1520 1522 1524 1525 1526 1528 1529 1530 1531 1532 1535 1538 1540 1543
1464 1464 1464 1466 1468 1469 1471 1474 1477 1481 1486 1491 1495 1498 1502 1504 1506 1509 1511 1513 1514 1515 1516 1516 1516 1516 1517 1517 1517 1517 1517 1517 1518 1518 1520 1521 1523 1525 1527 1528 1530 1531 1533 1534 1536 1538 1540 1543 1544
1463 1464 1466 1467 1469 1471 1472 1476 1479 1483 1488 1492 1496 1499 1502 1504 1507 1509 1511 1513 1514 1515 1516 1517 1517 1517 1518 1518 1518 1519 1519 1519 1519 1519 1520 1523 1525 1527 1529 1531 1532 1534 1536 1537 1539 1541 1543 1544 1546
1462 1464 1466 1467 1469 1471 1473 1477 1481 1485 1489 1493 1496 1499 1502 1504 1507 1509 1511 1513 1514 1516 1517 1517 1518 1518 1519 1519 1519 1520 1521 1521 1521 1521 1522 1525 1527 1529 1531 1532 1534 1536 1538 1539 1541 1543 1544 1545 1547
1463 1465 1468 1467 1467 1469 1474 1479 1481 1484 1488 1492 1496 1499 1502 1505 1507 1509 1511 1513 1515 1516 1517 1518 1519 1520 1520 1521 1521 1522 1522 1523 1523 1524 1525 1527 1530 1531 1533 1535 1536 1538 1540 1541 1543 1544 1545 1547 1548
1463 1470 1479 1467 1464 1467 1475 1486 1481 1483 1487 1491 1494 1498 1502 1505 1507 1509 1511 1513 1515 1516 1517 1519 1520 1520 1521 1522 1523 1524 1525 1525 1526 1527 1528 1530 1532 1533 1535 1536 1538 1539 1541 1542 1544 1545 1547 1548 1549
1471 1479 1478 1470 1461 1462 1467 1478 1477 1480 1484 1488 1492 1497 1500 1504 1507 1509 1511 1512 1514 1515 1517 1519 1520 1521 1522 1523 1524 1526 1526 1527 1528 1529 1530 1531 1533 1535 1536 1538 1539 1541 1542 1544 1545 1546 1548 1549 1550
1478 1475 1472 1471 1460 1460 1465 1472 1473 1476 1479 1484 1490 1494 1498 1502 1505 1508 1510 1511 1513 1515 1516 1518 1520 1521 1523 1524 1525 1527 1528 1529 1530 1531 1532 1533 1534 1535 1537 1538 1540 1542 1543 1545 1546 1547 1548 1549 1551
1465 1469 1468 1462 1455 1460 1465 1470 1470 1472 1475 1480 1486 1491 1496 1499 1503 1506 1509 1511 1512 1514 1515 1518 1520 1521 1523 1525 1526 1527 1528 1530 1531 1532 1533 1534 1535 1536 1538 1539 1541 1542 1543 1545 1546 1547 1549 1550 1551
1461 1465 1464 1458 1453 1458 1464 1468 1465 1468 1472 1477 1482 1487 1492 1497 1501 1504 1507 1509 1511 1512 1514 1517 1519 1521 1523 1525 1526 1528 1529 1531 1532 1533 1534 1535 1536 1537 1539 1539 1541 1542 1543 1545 1546 1547 1549 1550 1551
1460 1461 1461 1460 1456 1456 1465 1474 1468 1468 1470 1474 1478 1483 1488 1493 1497 1501 1505 1508 1510 1511 1513 1516 1518 1520 1522 1524 1526 1528 1529 1531 1532 1534 1534 1535 1536 1537 1539 1540 1541 1542 1543 1544 1546 1547 1548 1549 1551
1463 1453 1453 1457 1465 1471 1468 1485 1472 1469 1469 1471 1475 1480 1485 1489 1494 1498 1502 1505 1508 1510 1512 1515 1517 1520 1522 1524 1525 1527 1529 1530 1532 1533 1534 1535 1537 1538 1539 1540 1541 1542 1543 1544 1545 1546 1548 1549 1549
1455 1451 1454 1457 1462 1470 1467 1479 1476 1466 1471 1469 1472 1477 1482 1486 1491 1495 1499 1503 1506 1509 1511 1514 1516 1519 1521 1523 1525 1527 1529 1530 1532 1533 1534 1535 1536 1537 1538 1539 1540 1541 1542 1543 1545 1545 1547 1548 1549
1450 1453 1455 1458 1464 1484 1474 1479 1479 1466 1465 1465 1468 1474 1479 1483 1488 1492 1497 1501 1504 1507 1510 1512 1515 1517 1519 1522 1524 1525 1527 1529 1531 1532 1534 1535 1536 1536 1537 1538 1539 1540 1541 1542 1543 1544 1545 1546 1547
1451 1465 1481 1487 1488 1486 1467 1474 1472 1457 1456 1460 1465 1471 1476 1481 1485 1490 1494 1498 1502 1505 1508 1511 1513 1515 1518 1520 1522 1524 1526 1528 1530 1531 1533 1534 1535 1535 1536 1537 1538 1539 1540 1541 1542 1543 1544 1544 1545
1452 1459 1481 1499 1498 1481 1469 1476 1465 1454 1455 1459 1464 1469 1474 1478 1483 1488 1492 1496 1500 1503 1506 1509 1511 1513 1516 1518 1520 1523 1525 1527 1528 1530 1532 1532 1533 1534 1535 1536 1536 1537 1538 1539 1540 1541 1542 1542 1543
1453 1455 1452 1468 1476 1486 1481 1471 1463 1456 1456 1459 1463 1467 1472 1476 1480 1485 1490 1494 1498 1501 1504 1507 1509 1511 1514 1516 1519 1521 1523 1525 1527 1529 1530 1531 1532 1533 1534 1534 1535 1535 1536 1538 1539 1539 1540 1541 1541
1446 1448 1456 1469 1488 1496 1489 1481 1474 1461 1459 1459 1462 1466 1471 1475 1479 1483 1488 1492 1496 1500 1503 1505 1508 1510 1512 1515 1517 1519 1521 1523 1525 1527 1528 1529 1531 1532 1532 1533 1533 1534 1535 1536 1536 1537 1538 1538 1539
1448 1452 1456 1461 1467 1487 1496 1483 1454 1455 1457 1460 1462 1466 1471 1474 1478 1481 1487 1491 1495 1498 1501 1504 1506 1508 1511 1513 1515 1517 1519 1521 1523 1524 1526 1527 1529 1530 1531 1531 1532 1533 1533 1534 1534 1535 1535 1536 1536
1441 1445 1451 1467 1472 1470 1481 1481 1452 1453 1456 1460 1462 1467 1471 1475 1478 1482 1485 1489 1493 1497 1500 1502 1504 1507 1509 1511 1513 1515 1517 1519 1520 1522 1523 1525 1526 1527 1528 1529 1530 1530 1531 1531 1532 1532 1533 1533 1534